Wind_Speed
67 55 53 55 55 57 60 60 61 59 52 47 37 25 12 8 9 12 15 21 25 31 40 40 43 47 51 50 40 26 15 5 7 13 21 32 41 50 49 52 70 94 103 103 108 109 105 99 93 93 91 93 88 88
56 55 56 57 60 62 62 61 59 51 47 39 32 19 10 10 10 14 19 21 23 23 30 39 41 42 47 49 43 28 17 7 9 15 16 18 27 34 44 54 67 88 101 103 105 106 101 98 91 89 90 91 90 90
55 57 60 61 63 63 64 62 52 47 40 34 26 15 11 14 12 11 15 18 19 26 22 31 41 42 42 43 43 32 19 11 7 14 17 15 16 28 39 51 67 91 99 103 101 99 99 95 88 84 88 91 91 90
57 59 63 64 63 64 62 55 48 39 36 29 23 15 10 14 14 13 16 16 18 25 22 22 30 39 41 37 39 32 23 15 12 12 24 22 12 19 31 45 62 82 92 96 96 96 95 92 90 85 85 89 90 88
58 62 64 65 64 61 53 51 46 40 33 26 21 20 12 17 15 17 18 16 15 16 19 17 20 28 37 44 40 32 30 22 20 14 26 28 22 18 27 38 55 76 89 92 93 93 94 91 90 85 83 82 90 87
58 62 65 64 66 59 52 49 45 40 31 25 19 18 17 19 20 19 19 19 16 14 8 12 11 14 25 34 43 49 50 37 28 18 22 29 19 16 20 30 50 70 88 93 94 92 92 89 89 87 85 91 85 84
57 62 63 62 65 57 52 46 43 38 31 27 21 18 18 17 22 26 27 24 20 19 16 11 7 7 13 21 27 35 39 44 40 35 32 28 23 21 16 20 35 59 78 90 91 92 92 91 90 87 84 82 84 71
57 61 62 61 63 56 52 46 43 38 33 26 24 22 21 20 18 18 22 25 26 25 22 19 13 9 5 8 15 20 25 28 31 33 32 32 22 12 18 30 34 45 68 86 91 94 94 93 93 91 86 84 83 82
58 58 61 60 62 54 50 46 41 39 35 30 26 22 21 22 25 27 30 33 32 28 26 22 20 15 7 4 3 8 11 16 18 17 17 16 17 15 10 21 34 50 65 79 97 100 102 99 98 97 92 94 99 97
56 58 60 59 62 53 49 44 41 39 36 34 31 26 25 26 26 26 26 26 29 30 31 27 26 21 11 8 9 10 9 10 11 12 6 5 6 2 2 8 24 36 57 73 86 98 101 104 105 105 104 104 101 102
55 56 58 58 61 53 50 47 43 39 35 32 29 27 26 25 25 25 24 24 25 26 25 24 23 20 14 15 13 19 18 16 16 18 17 14 11 9 9 10 13 24 40 57 79 94 105 106 109 112 113 113 112 109
54 53 56 56 60 52 47 46 42 39 36 33 31 30 29 26 24 22 21 22 24 25 25 25 23 20 16 13 14 20 24 25 24 26 25 26 23 21 19 18 16 18 26 40 57 80 97 107 112 112 113 115 114 111
53 52 55 55 58 50 46 44 42 39 36 34 32 31 31 30 28 27 27 26 27 26 25 24 23 22 20 18 14 14 21 29 30 30 29 32 31 31 30 29 27 27 28 29 35 49 67 91 106 108 106 108 111 111
50 52 53 55 55 47 45 44 42 40 38 38 36 34 32 30 27 25 25 25 24 24 24 23 24 23 22 20 18 16 15 18 25 33 35 35 37 39 39 37 35 35 36 35 38 40 43 57 76 93 101 105 106 108
48 51 50 54 52 43 41 40 39 39 40 39 37 34 29 27 26 25 24 21 21 21 21 20 22 24 24 24 23 22 20 19 18 22 27 32 36 39 44 45 43 43 40 40 42 41 40 41 47 57 69 81 91 99
46 49 48 54 49 39 37 36 35 37 39 42 45 40 34 30 26 24 23 23 23 24 24 24 24 25 27 28 28 29 27 23 20 21 23 25 29 34 39 41 45 49 48 45 43 40 39 40 39 41 47 57 65 74
46 48 47 52 44 36 36 34 30 31 35 37 38 37 32 29 29 30 29 28 25 21 22 25 29 32 33 35 35 34 33 30 28 26 22 22 26 29 31 35 39 42 46 51 49 48 43 38 39 38 39 42 52 60
47 47 48 49 40 36 35 32 31 33 36 37 40 39 37 39 30 25 24 23 23 28 29 29 28 26 26 28 29 31 31 31 32 31 31 29 29 28 28 32 33 37 39 44 48 50 50 46 43 39 38 41 43 49
46 44 49 44 35 33 31 28 32 34 33 35 36 36 39 39 36 27 23 18 17 28 30 29 32 31 29 28 31 32 32 32 31 30 28 29 31 31 28 29 31 31 32 36 41 48 51 50 50 48 44 42 46 48
43 43 46 37 34 31 27 28 30 29 32 34 38 39 41 40 34 23 21 21 20 26 32 41 46 44 35 29 32 34 32 32 31 29 26 22 26 28 28 27 26 28 30 33 37 42 47 49 51 54 53 50 47 45
38 43 41 33 30 26 28 29 29 31 32 36 40 42 43 42 38 36 34 26 28 37 41 44 42 35 41 43 42 36 31 29 29 28 25 22 19 22 27 29 28 26 28 32 35 37 41 43 48 51 54 56 52 49
36 41 37 29 26 27 24 24 27 32 33 36 40 40 39 42 37 37 41 38 41 47 46 46 46 48 51 50 46 42 38 37 37 35 30 27 24 18 15 20 25 29 30 30 32 32 35 39 42 48 52 56 56 54
36 39 34 27 25 26 21 25 32 35 39 42 47 45 42 37 41 50 53 48 53 55 60 61 59 53 46 44 43 41 39 35 33 34 31 25 23 22 18 15 17 22 27 31 31 29 31 34 37 43 47 49 52 55
36 38 31 25 23 25 27 27 33 38 45 51 46 44 42 38 47 52 53 52 52 51 51 53 53 53 50 47 46 41 38 34 30 30 32 28 22 23 21 18 18 18 22 27 30 31 29 29 32 37 42 45 46 48
35 35 28 25 23 25 25 31 33 41 45 49 43 47 49 52 55 56 55 52 53 54 53 52 52 49 46 43 40 40 37 34 30 23 16 20 21 24 25 22 17 15 19 22 26 29 29 27 26 29 35 39 43 43
34 29 23 23 23 21 23 33 34 35 40 41 44 45 43 44 44 44 46 48 50 53 53 51 49 46 43 40 38 36 35 34 33 32 27 21 14 10 16 23 24 21 17 17 21 24 28 27 25 26 27 31 36 39
27 20 17 20 21 19 19 27 33 37 39 40 43 44 45 47 49 50 50 51 53 52 50 48 46 45 42 40 39 39 38 37 35 32 31 29 25 20 11 8 10 15 19 20 18 19 22 22 23 24 24 26 28 32
20 18 19 20 19 20 20 26 31 37 40 43 47 50 49 50 52 53 53 53 53 51 50 46 42 40 40 39 38 36 34 33 33 33 32 31 29 27 24 20 13 11 13 15 18 19 16 16 18 20 22 24 24 24
15 14 14 15 20 19 21 27 33 37 44 47 48 52 53 54 55 55 55 56 54 52 49 46 44 43 40 39 37 35 33 32 32 32 30 28 27 27 26 23 19 13 12 11 13 17 15 12 14 15 17 21 23 22
13 13 13 15 16 17 20 25 31 38 44 47 51 54 57 60 61 60 60 60 56 50 44 39 37 37 37 35 33 29 25 23 23 25 24 24 25 25 24 21 18 15 12 10 11 12 11 9 10 10 12 15 18 19
12 12 13 12 12 16 22 27 33 39 44 48 50 51 57 62 65 66 62 61 58 52 47 41 39 38 35 33 30 29 31 31 30 30 31 30 28 26 25 22 19 16 14 12 11 10 9 8 7 7 8 10 11 13
9 11 14 13 11 16 22 28 34 40 44 48 49 51 55 60 63 67 65 61 59 56 52 47 44 42 39 39 38 37 36 35 35 33 32 31 29 27 27 26 23 20 17 15 13 12 11 9 8 6 5 5 5 7
8 12 14 16 16 18 24 30 34 37 42 46 47 49 54 57 60 62 62 59 59 56 53 48 43 40 37 36 36 34 34 33 33 34 34 32 31 30 29 27 26 24 21 19 17 16 14 13 11 9 8 7 5 5
Wind_Direction
337 340 346 343 341 340 340 339 338 339 342 346 352 357 6 342 340 14 11 18 18 2 349 347 0 356 4 359 356 355 354 32 146 177 195 200 201 202 195 188 188 186 187 195 201 205 207 209 209 208 207 208 210 217
339 343 343 341 341 340 338 339 340 342 343 345 350 357 349 319 343 8 5 6 0 359 353 345 357 1 4 8 2 1 12 62 153 165 176 197 202 203 191 184 187 185 189 194 200 203 205 209 208 207 205 208 210 215
339 341 342 342 342 340 338 340 343 342 342 345 346 347 337 330 317 343 345 343 351 356 3 354 354 356 4 15 11 7 22 50 119 150 146 158 192 193 189 185 185 187 191 194 198 200 205 208 208 207 206 207 211 213
340 339 342 342 342 341 340 342 345 343 341 343 342 339 316 326 332 303 313 331 344 348 359 354 352 350 358 15 32 27 35 55 87 135 131 122 138 187 185 182 185 187 192 196 198 200 204 206 207 207 208 207 211 214
339 340 341 341 341 344 345 345 343 343 340 339 333 339 300 298 310 315 301 313 326 339 343 346 340 347 5 11 29 54 55 68 78 117 126 117 114 160 180 180 184 187 193 197 199 199 203 205 208 206 207 208 210 215
340 340 341 342 344 347 347 346 343 341 339 334 323 325 331 302 296 308 305 298 320 321 327 342 327 3 18 22 25 28 43 60 78 100 127 112 110 141 166 178 181 189 192 195 199 199 202 205 209 209 207 209 211 211
340 340 341 344 347 346 346 346 346 345 342 337 323 305 302 308 295 291 299 301 310 315 315 325 311 354 16 36 37 39 30 43 62 80 94 114 123 135 157 172 179 190 194 197 198 201 203 205 209 212 214 211 209 213
340 339 341 345 349 346 346 346 347 350 348 343 332 319 306 299 296 302 300 300 301 302 306 305 309 330 336 44 50 51 54 38 44 61 74 83 83 123 178 181 186 187 194 198 200 202 204 205 208 211 213 214 207 212
339 340 342 345 348 347 347 347 346 347 348 348 347 341 331 317 305 303 298 297 299 300 301 306 309 311 308 308 108 77 77 76 63 46 56 49 74 85 152 203 203 195 195 199 200 202 206 207 208 210 211 214 211 212
338 339 342 345 347 347 348 348 348 346 346 345 346 346 344 337 332 326 317 311 308 310 307 301 301 304 305 275 243 199 161 148 131 115 108 78 87 36 20 177 205 209 207 202 204 205 209 210 210 210 210 212 215 215
337 339 343 345 346 345 347 348 348 347 346 344 343 342 341 338 338 335 337 333 332 328 327 326 320 315 305 281 260 239 215 208 191 183 175 190 203 213 222 228 201 206 210 211 209 210 210 213 216 214 212 214 215 216
336 339 342 344 346 345 346 348 349 351 351 351 350 349 344 338 338 342 344 344 343 345 339 334 332 334 322 305 272 248 244 236 218 210 204 204 210 223 227 228 232 225 215 214 215 216 218 219 222 220 218 218 219 220
335 339 341 343 345 344 346 348 349 351 352 352 352 350 347 346 346 344 343 346 348 346 345 344 341 334 330 323 309 278 254 248 246 237 226 222 224 226 226 227 227 225 228 236 232 221 223 227 230 232 230 225 223 224
335 337 340 341 343 344 345 347 348 351 353 353 352 350 349 347 344 341 338 336 338 340 343 343 345 343 342 338 330 317 293 270 255 249 247 242 237 235 233 235 233 231 226 229 238 237 235 233 233 234 236 235 233 231
335 336 338 340 343 344 346 346 346 350 354 358 357 354 352 350 349 348 345 343 345 349 349 346 345 344 338 333 327 319 312 303 287 267 255 251 247 244 240 237 235 239 237 236 232 236 242 235 232 234 235 236 236 235
334 336 337 340 342 344 344 343 344 350 359 0 3 7 7 6 2 355 348 350 354 358 354 351 346 341 339 339 336 331 327 316 300 288 280 266 255 249 246 241 237 237 239 240 241 237 234 239 236 232 231 230 231 231
334 336 337 340 341 340 341 342 341 344 347 358 3 7 3 358 360 354 353 353 353 356 358 354 349 343 343 338 329 327 326 322 316 307 293 278 269 262 256 250 247 240 236 236 237 241 238 238 237 237 236 234 230 228
333 335 337 339 339 338 341 340 338 338 344 355 356 358 354 3 350 341 353 0 13 4 359 357 349 343 339 335 335 333 324 317 309 305 302 297 290 276 262 257 250 245 240 234 235 236 238 239 239 238 239 239 234 231
333 335 338 338 337 338 340 339 339 342 349 358 1 358 353 355 5 349 332 346 346 2 356 351 344 335 335 335 340 334 323 312 307 302 297 289 286 283 277 263 258 253 248 243 236 237 235 233 235 239 239 239 238 234
333 336 337 335 337 338 342 340 340 342 347 351 354 352 353 349 347 354 1 347 323 323 330 341 343 337 329 333 344 340 328 317 314 312 307 298 283 283 280 274 264 256 252 247 243 240 239 238 235 234 238 240 241 241
332 338 337 337 342 344 342 343 346 344 342 348 349 345 348 350 347 343 334 332 340 342 329 328 325 332 342 342 342 338 329 326 320 316 316 312 288 279 279 280 277 268 254 248 247 244 243 238 238 239 236 238 239 241
332 338 342 344 348 347 348 355 350 348 351 353 349 345 347 358 357 354 351 347 342 336 335 340 347 347 343 339 337 338 335 334 328 324 324 317 311 300 280 268 266 270 270 262 255 249 246 245 241 239 239 238 239 237
333 338 343 346 347 346 353 4 9 3 358 354 349 343 339 341 349 351 352 349 342 344 342 338 335 337 341 341 341 339 334 334 330 323 321 320 319 314 302 286 272 266 265 268 266 259 252 247 245 244 243 242 240 238
333 339 341 340 341 343 336 337 351 0 359 351 340 339 337 342 350 349 345 343 339 335 333 332 334 334 338 341 340 337 338 336 332 330 328 329 328 311 305 298 287 276 266 263 263 263 259 250 244 242 245 246 244 241
333 335 337 339 338 342 351 358 356 356 347 342 341 343 347 352 343 343 343 339 336 338 337 335 335 338 340 340 338 342 339 338 333 331 324 313 308 306 307 305 296 279 265 260 261 263 264 261 252 245 243 245 247 245
329 331 334 334 336 336 342 354 355 351 353 356 359 358 356 350 346 342 341 344 341 338 337 340 341 341 344 343 344 343 342 345 346 347 344 339 331 301 285 293 299 299 286 271 263 261 263 265 263 256 249 245 244 246
326 328 333 335 338 337 347 353 360 3 3 2 3 2 2 0 356 352 350 348 344 342 343 344 344 345 345 345 348 349 348 345 342 344 346 347 349 350 341 305 283 281 284 285 278 265 261 261 260 260 256 250 243 242
324 330 344 347 337 338 352 3 11 13 11 11 10 9 5 1 359 356 355 352 348 349 349 348 349 349 347 346 347 350 348 347 347 348 348 345 345 345 342 341 340 320 296 287 283 281 274 267 259 254 254 256 253 243
332 335 344 345 345 355 4 10 10 14 15 12 9 9 7 2 359 357 355 356 355 353 355 356 352 352 348 348 352 353 353 352 348 346 347 346 346 345 343 343 343 338 320 308 289 285 289 284 270 257 246 245 251 253
339 346 343 338 342 358 9 9 9 10 9 9 10 10 9 6 3 0 358 357 356 358 1 1 358 356 353 353 355 356 356 356 358 359 358 356 357 358 357 356 355 353 347 333 316 312 311 296 276 266 257 250 250 249
345 353 356 355 349 351 4 5 5 5 6 6 10 7 6 6 5 4 1 357 357 359 2 5 7 4 1 1 3 6 10 9 9 10 11 10 9 7 9 11 12 11 8 3 357 349 341 329 313 294 280 270 263 258
356 360 359 356 353 345 351 0 2 3 3 3 5 3 3 2 3 3 3 1 360 360 2 4 7 7 6 6 7 9 10 10 10 11 10 12 15 18 19 20 20 22 22 21 21 18 14 9 5 356 338 317 291 274
5 8 9 11 7 355 349 355 358 357 2 2 2 3 2 1 5 2 4 3 3 3 3 4 7 9 9 9 8 8 10 13 15 16 16 16 19 22 24 24 24 25 28 30 30 29 27 25 21 19 17 10 359 336
Height
10649 10638 10625 10616 10605 10593 10582 10570 10557 10544 10532 10522 10514 10507 10503 10500 10496 10494 10490 10485 10479 10474 10466 10456 10444 10429 10415 10400 10387 10377 10372 10369 10367 10367 10370 10376 10382 10392 10409 10429 10447 10467 10483 10506 10523 10545 10571 10591 10616 10636 10662 10675 10691 10699
10644 10634 10622 10611 10599 10588 10576 10564 10552 10539 10530 10521 10514 10509 10505 10501 10498 10495 10491 10485 10480 10474 10468 10458 10447 10436 10422 10409 10395 10382 10376 10374 10370 10368 10374 10384 10395 10405 10417 10430 10447 10469 10479 10500 10518 10540 10566 10584 10607 10627 10649 10667 10680 10688
10640 10630 10618 10607 10594 10582 10569 10557 10546 10536 10528 10520 10513 10509 10506 10503 10499 10496 10491 10484 10479 10474 10469 10463 10451 10441 10432 10419 10405 10392 10383 10379 10379 10379 10381 10389 10399 10409 10421 10433 10447 10460 10481 10496 10517 10541 10558 10579 10602 10621 10638 10653 10666 10679
10637 10625 10613 10602 10590 10577 10564 10551 10543 10534 10526 10519 10512 10509 10505 10502 10499 10495 10489 10485 10480 10475 10471 10466 10459 10448 10439 10428 10419 10404 10393 10386 10387 10390 10389 10393 10402 10414 10425 10438 10451 10468 10487 10499 10515 10535 10551 10571 10590 10609 10625 10642 10656 10667
10633 10621 10609 10596 10585 10574 10559 10549 10539 10532 10524 10517 10512 10507 10503 10500 10497 10492 10487 10484 10480 10476 10471 10467 10461 10455 10446 10433 10420 10413 10405 10398 10395 10396 10396 10398 10407 10417 10430 10444 10458 10473 10488 10500 10516 10533 10545 10565 10580 10599 10615 10635 10645 10657
10630 10618 10605 10592 10578 10567 10557 10547 10537 10528 10521 10515 10510 10506 10502 10497 10495 10491 10486 10483 10479 10475 10472 10467 10463 10459 10454 10447 10436 10425 10418 10412 10408 10408 10405 10412 10418 10426 10436 10448 10460 10471 10482 10496 10509 10525 10541 10561 10574 10589 10602 10614 10629 10645
10626 10615 10603 10590 10575 10563 10555 10544 10535 10526 10518 10512 10508 10503 10499 10495 10491 10487 10484 10480 10477 10472 10470 10468 10464 10462 10459 10455 10450 10444 10435 10431 10427 10422 10421 10425 10430 10431 10439 10446 10458 10468 10479 10490 10506 10521 10533 10548 10563 10580 10595 10606 10616 10630
10622 10611 10601 10587 10575 10563 10551 10542 10533 10525 10516 10510 10504 10498 10495 10492 10488 10483 10478 10475 10472 10469 10467 10464 10463 10461 10460 10459 10456 10453 10448 10443 10440 10439 10436 10433 10436 10439 10444 10442 10448 10459 10471 10484 10496 10508 10519 10534 10547 10560 10576 10590 10603 10613
10619 10608 10597 10585 10573 10562 10551 10540 10531 10522 10515 10508 10502 10496 10491 10487 10483 10480 10475 10470 10466 10465 10462 10461 10459 10459 10458 10458 10458 10457 10454 10452 10449 10446 10445 10447 10445 10446 10449 10449 10453 10453 10452 10467 10476 10487 10498 10513 10527 10540 10553 10564 10579 10592
10616 10605 10594 10582 10571 10560 10550 10541 10532 10522 10514 10505 10498 10492 10487 10483 10478 10474 10469 10464 10459 10456 10453 10454 10452 10451 10453 10454 10454 10455 10455 10455 10454 10452 10450 10448 10449 10451 10451 10451 10454 10458 10462 10465 10469 10480 10489 10495 10505 10518 10530 10539 10549 10561
10612 10602 10591 10579 10569 10558 10548 10539 10530 10522 10513 10506 10499 10492 10487 10481 10476 10471 10466 10461 10457 10452 10449 10447 10445 10444 10445 10446 10446 10447 10449 10451 10452 10453 10452 10451 10450 10450 10451 10452 10452 10453 10456 10461 10466 10470 10473 10479 10484 10492 10501 10512 10522 10532
10609 10598 10588 10578 10567 10556 10547 10538 10529 10520 10512 10505 10498 10490 10485 10480 10475 10470 10465 10460 10455 10450 10447 10444 10441 10440 10439 10439 10439 10438 10439 10442 10443 10445 10446 10446 10447 10447 10447 10447 10447 10447 10448 10451 10458 10465 10467 10468 10467 10474 10488 10499 10509 10519
10607 10596 10585 10575 10564 10554 10545 10536 10528 10520 10512 10505 10498 10490 10483 10476 10471 10467 10462 10457 10453 10449 10446 10443 10439 10436 10434 10433 10432 10431 10431 10431 10433 10436 10438 10439 10440 10440 10440 10441 10441 10442 10442 10442 10444 10451 10456 10460 10461 10465 10476 10489 10502 10513
10604 10594 10583 10572 10563 10552 10544 10534 10526 10519 10511 10503 10494 10487 10481 10475 10470 10465 10459 10455 10452 10448 10444 10440 10436 10433 10430 10427 10425 10422 10421 10421 10420 10422 10423 10426 10428 10430 10431 10432 10433 10434 10434 10435 10434 10436 10439 10442 10444 10451 10457 10469 10484 10499
10600 10591 10581 10570 10560 10551 10543 10534 10525 10518 10511 10502 10494 10486 10480 10473 10467 10463 10458 10454 10450 10447 10442 10437 10433 10429 10426 10423 10419 10415 10412 10410 10408 10408 10408 10410 10411 10413 10415 10417 10419 10420 10423 10426 10424 10425 10425 10425 10427 10431 10436 10442 10452 10467
10595 10587 10577 10568 10558 10549 10541 10533 10526 10518 10509 10501 10493 10485 10479 10473 10467 10461 10456 10452 10448 10444 10440 10436 10432 10427 10422 10418 10413 10408 10404 10401 10399 10397 10394 10393 10393 10395 10397 10399 10401 10403 10405 10409 10410 10412 10413 10412 10411 10413 10416 10421 10427 10435
10591 10583 10574 10565 10556 10547 10540 10534 10527 10520 10514 10505 10497 10489 10482 10476 10470 10464 10457 10451 10447 10443 10438 10433 10428 10423 10419 10414 10408 10402 10396 10391 10387 10384 10383 10380 10378 10377 10377 10379 10381 10382 10386 10388 10392 10393 10396 10399 10398 10399 10401 10403 10408 10415
10586 10578 10570 10562 10553 10544 10537 10531 10525 10519 10513 10506 10498 10490 10483 10477 10470 10464 10459 10454 10449 10443 10437 10432 10427 10421 10416 10410 10403 10398 10392 10386 10380 10375 10371 10368 10364 10362 10362 10361 10361 10362 10365 10370 10372 10375 10378 10382 10385 10389 10390 10390 10393 10396
10582 10574 10566 10556 10549 10541 10535 10529 10523 10517 10511 10505 10498 10491 10483 10475 10470 10462 10456 10452 10447 10443 10437 10431 10424 10416 10407 10400 10394 10388 10382 10375 10370 10366 10362 10358 10353 10349 10348 10348 10348 10349 10352 10354 10356 10356 10359 10366 10369 10372 10376 10378 10381 10383
10578 10570 10560 10551 10544 10538 10532 10527 10521 10514 10508 10502 10495 10488 10481 10473 10466 10460 10454 10447 10441 10435 10428 10421 10415 10407 10397 10391 10384 10378 10372 10364 10358 10353 10349 10347 10342 10338 10336 10336 10336 10337 10338 10339 10339 10340 10342 10348 10353 10356 10358 10361 10366 10371
10573 10565 10556 10548 10542 10536 10530 10524 10518 10512 10507 10500 10493 10485 10478 10470 10461 10454 10448 10443 10437 10432 10424 10416 10408 10395 10385 10377 10372 10367 10360 10354 10347 10342 10339 10335 10333 10330 10327 10325 10323 10323 10323 10323 10324 10326 10326 10332 10335 10337 10343 10343 10350 10356
10569 10561 10553 10546 10540 10535 10529 10523 10518 10513 10506 10497 10490 10482 10474 10466 10458 10452 10445 10436 10431 10427 10416 10404 10393 10385 10377 10368 10361 10354 10346 10340 10333 10328 10326 10323 10321 10320 10318 10316 10313 10310 10309 10309 10310 10314 10317 10317 10319 10320 10323 10326 10332 10341
10565 10558 10550 10544 10539 10532 10527 10522 10516 10509 10502 10494 10485 10478 10471 10463 10455 10447 10441 10433 10424 10413 10404 10396 10387 10377 10369 10361 10353 10346 10339 10333 10326 10319 10315 10312 10310 10306 10303 10303 10303 10301 10298 10296 10296 10298 10301 10303 10305 10306 10307 10310 10317 10325
10560 10553 10546 10541 10536 10532 10526 10521 10515 10507 10500 10493 10485 10475 10467 10458 10448 10442 10436 10427 10418 10410 10402 10392 10381 10372 10363 10353 10345 10337 10331 10324 10317 10313 10307 10303 10301 10296 10294 10292 10291 10290 10288 10286 10284 10284 10285 10288 10289 10291 10293 10296 10301 10307
10555 10548 10542 10537 10533 10529 10524 10520 10513 10506 10499 10492 10478 10466 10456 10448 10441 10433 10426 10418 10409 10402 10394 10384 10374 10365 10356 10348 10338 10331 10323 10318 10312 10309 10305 10298 10293 10288 10284 10282 10281 10281 10279 10277 10274 10273 10274 10275 10278 10280 10281 10283 10285 10291
10551 10544 10539 10534 10530 10526 10522 10518 10511 10506 10499 10488 10477 10469 10460 10451 10442 10434 10426 10418 10408 10397 10387 10376 10367 10358 10349 10340 10332 10325 10317 10309 10302 10297 10293 10290 10288 10284 10280 10275 10272 10271 10269 10268 10267 10266 10264 10265 10268 10269 10270 10272 10274 10276
10546 10541 10538 10533 10528 10524 10522 10517 10511 10505 10496 10488 10479 10470 10459 10449 10438 10429 10421 10410 10399 10389 10379 10369 10359 10349 10341 10333 10326 10318 10311 10305 10299 10293 10287 10281 10277 10275 10273 10271 10268 10265 10261 10258 10257 10256 10256 10258 10259 10259 10259 10260 10263 10265
10540 10537 10534 10531 10527 10523 10521 10517 10510 10503 10496 10488 10478 10468 10458 10448 10438 10427 10418 10408 10396 10384 10373 10364 10355 10347 10338 10330 10323 10317 10310 10303 10296 10290 10284 10278 10273 10269 10265 10263 10261 10259 10255 10252 10249 10248 10249 10251 10252 10252 10252 10251 10253 10257
10538 10535 10532 10529 10524 10521 10518 10513 10508 10502 10495 10486 10478 10469 10458 10447 10436 10425 10414 10403 10392 10380 10369 10359 10349 10342 10334 10327 10321 10315 10308 10301 10294 10288 10284 10279 10274 10267 10262 10259 10256 10253 10249 10247 10244 10241 10242 10244 10244 10245 10246 10246 10246 10247
10536 10533 10530 10526 10522 10519 10516 10512 10507 10501 10495 10488 10479 10469 10459 10445 10433 10422 10409 10399 10390 10381 10372 10364 10354 10344 10335 10328 10322 10317 10313 10307 10300 10293 10287 10279 10272 10266 10261 10256 10253 10250 10246 10243 10241 10239 10239 10239 10239 10239 10239 10240 10241 10242
10533 10532 10529 10525 10520 10516 10514 10510 10504 10499 10493 10485 10476 10467 10458 10447 10434 10421 10409 10398 10386 10377 10370 10362 10353 10343 10336 10330 10323 10316 10309 10303 10296 10290 10283 10278 10272 10267 10261 10257 10253 10249 10245 10242 10241 10239 10238 10237 10236 10236 10235 10236 10236 10237
10533 10530 10527 10524 10520 10517 10514 10509 10503 10497 10490 10482 10475 10468 10460 10450 10439 10425 10411 10399 10387 10376 10367 10358 10351 10342 10334 10326 10319 10313 10307 10301 10295 10289 10284 10278 10273 10268 10263 10259 10255 10251 10247 10244 10241 10240 10238 10237 10235 10234 10234 10233 10234 10234
10531 10529 10526 10524 10521 10518 10514 10509 10502 10496 10490 10483 10476 10468 10460 10452 10441 10430 10418 10405 10392 10380 10371 10363 10354 10346 10338 10331 10325 10318 10312 10305 10299 10292 10286 10281 10275 10270 10265 10262 10258 10254 10251 10247 10245 10242 10241 10239 10238 10236 10235 10234 10234 10233